EW1315 Weather Reports


time (UTC)temp
C
wind
direction
speed
KPH
gust
KPH
rain 1hr
cm
rain 24hr
cm
rain mn
cm
humidity
%
barometer
mb
20260505215216 9 77 1.6 3.2 0.00 0.00 0.00 82 1011.4
20260505214503 9 93 1.6 3.2 0.00 0.00 0.00 82 1011.2
20260505214217 9 99 1.6 3.2 0.00 0.00 0.00 81 1011.3
20260505213503 9 93 1.6 3.2 0.00 0.00 0.00 80 1011.3
20260505213217 9 93 1.6 3.2 0.00 0.00 0.00 80 1011.2
20260505212503 10 91 1.6 3.2 0.00 0.00 0.00 79 1011.2
20260505212004 10 76 1.6 3.2 0.00 0.00 0.00 79 1011.3
20260505211503 10 85 0.0 3.2 0.00 0.00 0.00 79 1011.5
20260505211004 10 101 1.6 3.2 0.00 0.00 0.00 79 1011.4
20260505210717 10 104 1.6 3.2 0.00 0.00 0.00 78 1011.3
20260505210003 10 80 0.0 3.2 0.00 0.00 0.00 78 1011.2
20260505205503 10 59 0.0 3.2 0.00 0.00 0.00 78 1011.3
20260505205003 10 67 1.6 3.2 0.00 0.00 0.00 77 1011.1
20260505204503 10 101 0.0 3.2 0.00 0.00 0.00 78 1011.2
20260505204003 10 93 0.0 3.2 0.00 0.00 0.00 77 1011.2
20260505203503 10 76 1.6 3.2 0.00 0.00 0.00 77 1011.1
20260505203003 10 87 0.0 3.2 0.00 0.00 0.00 77 1011.1
20260505202503 10 89 0.0 3.2 0.00 0.00 0.00 77 1011.4
20260505202003 10 71 0.0 3.2 0.00 0.00 0.00 77 1011.2
20260505201503 10 75 0.0 3.2 0.00 0.00 0.00 76 1011.0
20260505201004 10 75 1.6 3.2 0.00 0.00 0.00 76 1011.2
20260505200503 10 56 1.6 3.2 0.00 0.00 0.00 76 1011.2
20260505200004 10 54 1.6 3.2 0.00 0.00 0.00 75 1011.3
20260505195503 10 75 1.6 3.2 0.00 0.00 0.00 75 1011.1
20260505195003 11 85 1.6 3.2 0.00 0.00 0.00 74 1011.1
20260505194503 11 69 1.6 3.2 0.00 0.00 0.00 74 1011.2
20260505194003 11 51 1.6 3.2 0.00 0.00 0.00 73 1011.1
20260505193503 11 53 1.6 4.8 0.00 0.00 0.00 73 1011.2
20260505193003 11 50 1.6 6.4 0.00 0.00 0.00 72 1011.2
20260505192503 11 51 1.6 6.4 0.00 0.00 0.00 72 1011.1
20260505192003 11 62 1.6 3.2 0.00 0.00 0.00 72 1011.2
20260505191503 11 49 1.6 6.4 0.00 0.00 0.00 71 1011.1
20260505191003 11 37 1.6 6.4 0.00 0.00 0.00 70 1011.1
20260505190503 12 37 1.6 6.4 0.00 0.00 0.00 69 1011.0
20260505190004 12 31 1.6 9.7 0.00 0.00 0.00 69 1011.0
20260505185503 12 36 3.2 9.7 0.00 0.00 0.00 69 1011.0
20260505185003 12 49 1.6 4.8 0.00 0.00 0.00 69 1010.9
20260505184503 12 32 1.6 11.3 0.00 0.00 0.00 68 1010.6
20260505184003 12 24 1.6 11.3 0.00 0.00 0.00 68 1010.7
20260505183503 12 22 1.6 6.4 0.00 0.00 0.00 69 1010.5
20260505183003 12 24 3.2 6.4 0.00 0.00 0.00 68 1010.5
20260505182503 12 34 1.6 6.4 0.00 0.00 0.00 68 1010.5
20260505182004 12 37 1.6 6.4 0.00 0.00 0.00 67 1010.6
20260505181503 12 28 1.6 6.4 0.00 0.00 0.00 66 1010.5
20260505181003 12 32 1.6 6.4 0.00 0.00 0.00 66 1010.4
20260505180503 12 35 1.6 8.0 0.00 0.00 0.00 65 1010.7
20260505180003 12 20 1.6 8.0 0.00 0.00 0.00 65 1010.3
20260505175504 12 20 1.6 6.4 0.00 0.00 0.00 65 1010.2
20260505175003 13 42 1.6 6.4 0.00 0.00 0.00 65 1010.2
20260505174716 13 39 1.6 6.4 0.00 0.00 0.00 64 1010.2
20260505174003 13 10 3.2 9.7 0.00 0.00 0.00 64 1010.2
20260505173503 13 12 3.2 9.7 0.00 0.00 0.00 65 1010.2
20260505173215 13 9 3.2 6.4 0.00 0.00 0.00 64 1010.1
20260505172503 13 10 3.2 6.4 0.00 0.00 0.00 65 1010.2
20260505172003 13 8 3.2 6.4 0.00 0.00 0.00 65 1010.4
20260505171503 13 3 3.2 8.0 0.00 0.00 0.00 65 1010.3
20260505171003 13 3 3.2 8.0 0.00 0.00 0.00 64 1010.4
20260505170503 13 9 3.2 9.7 0.00 0.00 0.00 63 1010.5
20260505170213 13 14 3.2 9.7 0.00 0.00 0.00 64 1010.6
20260505165716 13 1 3.2 9.7 0.00 0.00 0.00 63 1010.4
20260505165213 13 5 3.2 8.0 0.00 0.00 0.00 63 1010.5
20260505164717 13 17 3.2 11.3 0.00 0.00 0.00 61 1010.4
20260505164003 13 33 3.2 8.0 0.00 0.00 0.00 61 1010.4
20260505163504 13 27 3.2 6.4 0.00 0.00 0.00 59 1010.5
20260505163216 13 16 3.2 6.4 0.00 0.00 0.00 59 1010.3
20260505162503 13 13 3.2 8.0 0.00 0.00 0.00 60 1010.3
20260505162003 13 359 3.2 8.0 0.00 0.00 0.00 60 1010.3
20260505161503 13 12 3.2 8.0 0.00 0.00 0.00 59 1010.3
20260505161003 13 21 3.2 9.7 0.00 0.00 0.00 60 1010.1
20260505160503 13 7 3.2 9.7 0.00 0.00 0.00 59 1010.1
20260505153003 14 17 3.2 8.0 0.00 0.00 0.00 57 1010.3
20260505152504 14 16 3.2 9.7 0.00 0.00 0.00 56 1010.3
20260505152217 14 8 3.2 9.7 0.00 0.00 0.00 57 1010.4
20260505151503 14 359 3.2 9.7 0.00 0.00 0.00 57 1010.3
20260505151003 14 357 3.2 9.7 0.00 0.00 0.00 56 1010.6
20260505150503 15 13 3.2 11.3 0.00 0.00 0.00 59 1010.4
20260505140503 14 3 3.2 9.7 0.00 0.00 0.00 56 1010.6
20260505125003 14 17 3.2 9.7 0.00 0.00 0.00 56 1010.8
20260505124503 15 39 3.2 9.7 0.00 0.00 0.00 55 1010.5
20260505124003 15 21 3.2 8.0 0.00 0.00 0.00 51 1010.8
20260505123503 14 357 3.2 12.9 0.00 0.00 0.00 53 1010.7
20260505123213 14 359 3.2 12.9 0.00 0.00 0.00 53 1010.9
20260505122716 14 353 4.8 12.9 0.00 0.00 0.00 55 1010.8
20260505122214 14 1 3.2 9.7 0.00 0.00 0.00 55 1010.8
20260505121503 13 7 3.2 8.0 0.00 0.00 0.00 54 1010.7
20260505121003 14 19 3.2 8.0 0.00 0.00 0.00 54 1010.7
20260505120503 14 80 3.2 6.4 0.00 0.00 0.00 54 1010.7
20260505120004 13 357 3.2 9.7 0.00 0.00 0.00 53 1010.7
20260505115503 14 347 3.2 9.7 0.00 0.00 0.00 52 1010.8
20260505115003 14 4 3.2 8.0 0.00 0.00 0.00 53 1010.7
20260505114503 13 27 3.2 9.7 0.00 0.00 0.00 56 1010.7
20260505114003 14 17 3.2 9.7 0.00 0.00 0.00 56 1010.7
20260505113503 15 5 3.2 8.0 0.00 0.00 0.00 56 1010.8
20260505113003 13 16 3.2 9.7 0.00 0.00 0.00 55 1010.6
20260505112717 15 28 3.2 9.7 0.00 0.00 0.00 55 1010.8
20260505112003 15 27 3.2 8.0 0.00 0.00 0.00 54 1010.9
20260505111503 13 358 3.2 9.7 0.00 0.00 0.00 57 1010.8
20260505111216 13 358 3.2 9.7 0.00 0.00 0.00 57 1010.9
20260505110503 15 42 3.2 9.7 0.00 0.00 0.00 56 1010.8
20260505102004 12 9 3.2 9.7 0.00 0.00 0.00 62 1011.3
20260505101503 13 79 1.6 8.0 0.00 0.00 0.00 60 1011.3
20260505101003 12 78 1.6 6.4 0.00 0.00 0.00 64 1011.3
20260505100503 13 83 3.2 8.0 0.00 0.00 0.00 62 1011.4
20260505100003 13 44 3.2 8.0 0.00 0.00 0.00 65 1011.5
20260505095503 12 46 3.2 11.3 0.00 0.00 0.00 67 1011.4
20260505095213 12 76 3.2 11.3 0.00 0.00 0.00 66 1011.4
20260505094503 12 58 3.2 9.7 0.00 0.00 0.00 68 1011.5
20260505094003 12 18 3.2 11.3 0.00 0.00 0.00 68 1011.5
20260505093504 11 6 3.2 11.3 0.00 0.00 0.00 68 1011.3
20260505093215 11 23 3.2 11.3 0.00 0.00 0.00 71 1011.4
20260505092503 11 38 1.6 6.4 0.00 0.00 0.00 71 1011.4
20260505092003 11 52 1.6 6.4 0.00 0.00 0.00 73 1011.4
20260505091503 11 59 1.6 6.4 0.00 0.00 0.00 73 1011.3
20260505091003 11 27 3.2 12.9 0.00 0.00 0.00 73 1011.5
20260505090503 10 12 4.8 12.9 0.00 0.00 0.00 72 1011.7
20260505090003 11 10 3.2 9.7 0.00 0.00 0.00 73 1011.5
20260505085503 10 11 3.2 9.7 0.00 0.00 0.00 73 1011.6
20260505085213 10 10 3.2 9.7 0.00 0.00 0.00 72 1011.7
20260505084503 10 35 3.2 9.7 0.00 0.00 0.00 73 1011.7
20260505084003 10 46 1.6 6.4 0.00 0.00 0.00 77 1011.4
20260505083503 10 47 1.6 6.4 0.00 0.00 0.00 77 1011.7
20260505083003 10 41 1.6 8.0 0.00 0.00 0.00 79 1012.0
20260505082503 10 28 3.2 8.0 0.00 0.00 0.00 80 1011.8
20260505082003 10 26 3.2 8.0 0.00 0.00 0.00 80 1012.0
20260505081714 10 32 1.6 6.4 0.00 0.00 0.00 80 1012.0
20260505081217 10 30 3.2 8.0 0.00 0.00 0.00 81 1011.8
20260505080503 10 18 3.2 9.7 0.00 0.00 0.00 81 1011.9
20260505080003 10 30 3.2 9.7 0.00 0.00 0.00 81 1011.7
20260505075503 10 42 3.2 8.0 0.00 0.00 0.00 82 1011.7
20260505075003 10 41 3.2 8.0 0.00 0.00 0.00 82 1012.0
20260505074717 10 46 3.2 8.0 0.00 0.00 0.00 82 1011.9
20260505074003 10 49 1.6 6.4 0.00 0.00 0.00 84 1011.8
20260505073503 9 37 1.6 6.4 0.00 0.00 0.00 84 1011.8
20260505073003 9 38 1.6 4.8 0.00 0.00 0.00 84 1011.8
20260505072503 9 64 1.6 4.8 0.00 0.00 0.00 85 1011.7
20260505072003 9 56 1.6 4.8 0.00 0.00 0.00 85 1011.6
20260505071503 9 47 1.6 4.8 0.00 0.00 0.00 85 1011.9
20260505071003 9 60 1.6 4.8 0.00 0.00 0.00 86 1011.7
20260505070504 9 59 1.6 4.8 0.00 0.00 0.00 86 1011.6
20260505070219 9 54 1.6 4.8 0.00 0.00 0.00 86 1011.7
20260505065503 9 67 1.6 4.8 0.00 0.00 0.00 86 1011.9
20260505065004 9 72 1.6 4.8 0.00 0.00 0.00 87 1011.7
20260505064503 9 69 1.6 4.8 0.00 0.00 0.00 88 1011.6
20260505064003 8 49 1.6 6.4 0.00 0.00 0.00 89 1011.7
20260505063503 8 39 1.6 6.4 0.00 0.00 0.00 90 1011.8
20260505063003 8 41 1.6 6.4 0.00 0.00 0.00 91 1011.7
20260505062715 8 38 1.6 4.8 0.00 0.00 0.00 91 1011.5
20260505062212 8 45 1.6 4.8 0.00 0.00 0.00 91 1011.6
20260505061716 8 43 1.6 4.8 0.00 0.00 0.00 92 1011.9
20260505061003 8 44 1.6 3.2 0.00 0.00 0.00 93 1011.8
20260505060503 8 44 0.0 3.2 0.00 0.00 0.00 93 1012.0
20260505060003 7 68 0.0 3.2 0.00 0.00 0.00 94 1011.7
20260505055503 7 91 0.0 3.2 0.00 0.00 0.00 95 1011.9
20260505055003 7 105 1.6 3.2 0.00 0.00 0.00 95 1011.8
20260505054713 7 110 1.6 3.2 0.00 0.00 0.00 95 1011.9
20260505054003 7 112 1.6 3.2 0.00 0.00 0.00 95 1011.7
20260505053714 7 110 1.6 3.2 0.00 0.00 0.00 95 1012.0
20260505053217 7 106 1.6 3.2 0.00 0.00 0.00 95 1011.9
20260505052503 7 96 1.6 3.2 0.00 0.00 0.00 95 1012.0
20260505052003 7 95 1.6 3.2 0.00 0.00 0.00 95 1011.8
20260505051503 7 87 1.6 3.2 0.00 0.00 0.00 95 1012.1
20260505051003 7 88 1.6 3.2 0.00 0.00 0.00 95 1011.9
20260505050717 7 92 1.6 3.2 0.00 0.00 0.00 95 1012.0
20260505050215 6 102 1.6 3.2 0.00 0.00 0.00 95 1011.9
20260505041503 6 110 1.6 3.2 0.00 0.00 0.00 94 1011.9
20260505041003 6 112 1.6 3.2 0.00 0.00 0.00 94 1011.7
20260505040503 6 111 1.6 3.2 0.00 0.00 0.00 94 1011.7
20260505040004 6 104 1.6 3.2 0.00 0.00 0.00 94 1011.7
20260505035714 6 93 1.6 3.2 0.00 0.00 0.00 94 1011.5
20260505035003 7 86 1.6 3.2 0.00 0.00 0.00 94 1011.7
20260505034503 7 92 1.6 3.2 0.00 0.00 0.00 94 1011.7
20260505034003 7 99 1.6 3.2 0.00 0.00 0.00 94 1011.7
20260505033503 6 106 1.6 3.2 0.00 0.00 0.00 93 1011.6
20260505033214 7 109 1.6 3.2 0.00 0.00 0.00 93 1011.7
20260505032503 7 108 1.6 3.2 0.00 0.00 0.00 93 1012.0
20260505032003 7 101 1.6 3.2 0.00 0.00 0.00 93 1011.8
20260505031503 7 89 1.6 3.2 0.00 0.00 0.00 93 1011.6
20260505031215 7 86 1.6 3.2 0.00 0.00 0.00 93 1011.7
20260505030714 7 100 1.6 3.2 0.00 0.00 0.00 94 1011.7
20260505030217 7 107 1.6 3.2 0.00 0.00 0.00 94 1011.8
20260505025503 8 72 1.6 3.2 0.00 0.00 0.00 94 1011.8
20260505025217 8 83 1.6 3.2 0.00 0.00 0.00 94 1011.6
20260505024503 8 103 1.6 4.8 0.00 0.00 0.00 94 1011.7
20260505024003 8 100 1.6 4.8 0.00 0.00 0.00 94 1011.8
20260505023503 8 102 1.6 4.8 0.00 0.00 0.00 94 1011.6
20260505023003 8 105 1.6 3.2 0.00 0.00 0.00 94 1011.6
20260505022717 8 104 1.6 3.2 0.00 0.00 0.00 94 1011.8
20260505022003 8 107 1.6 3.2 0.00 0.00 0.00 94 1011.8
20260505021503 8 110 1.6 3.2 0.00 0.00 0.00 94 1011.9
20260505021216 7 108 1.6 3.2 0.00 0.00 0.00 94 1012.1
20260505020714 7 102 1.6 3.2 0.00 0.00 0.00 94 1012.1
20260505020003 7 95 1.6 3.2 0.00 0.00 0.00 94 1012.1
20260505015503 7 100 1.6 3.2 0.00 0.00 0.00 94 1012.1
20260505015003 7 99 1.6 3.2 0.00 0.00 0.00 94 1012.2
20260505014503 7 98 1.6 3.2 0.00 0.00 0.00 94 1012.2
20260505014003 7 93 0.0 3.2 0.00 0.00 0.00 94 1012.2
20260505013503 7 85 0.0 3.2 0.00 0.00 0.00 94 1012.2
20260505013003 7 95 1.6 3.2 0.00 0.00 0.00 94 1012.4
20260505012503 7 109 1.6 3.2 0.00 0.00 0.00 94 1012.5
20260505012003 7 112 1.6 3.2 0.00 0.00 0.00 94 1012.3
20260505011714 7 115 1.6 3.2 0.00 0.00 0.00 94 1012.3
20260505011003 7 106 1.6 3.2 0.00 0.00 0.00 94 1012.3
20260505010503 6 102 1.6 3.2 0.00 0.00 0.00 94 1012.3
20260505010003 6 102 0.0 3.2 0.00 0.00 0.00 94 1012.3
20260505005503 6 103 0.0 3.2 0.00 0.00 0.00 94 1012.2
20260505005004 6 103 0.0 3.2 0.00 0.00 0.00 93 1012.2
20260505004503 6 96 1.6 3.2 0.00 0.00 0.00 93 1012.3
20260505004003 6 89 1.6 3.2 0.00 0.00 0.00 93 1012.3
20260505003503 6 103 1.6 3.2 0.00 0.00 0.00 93 1012.3
20260505003003 6 107 1.6 3.2 0.00 0.00 0.00 93 1012.4
20260505002503 6 100 1.6 3.2 0.00 0.00 0.00 93 1012.4
20260505002003 6 100 1.6 3.2 0.00 0.00 0.00 93 1012.4
20260505001503 6 97 0.0 3.2 0.00 0.00 0.00 93 1012.4
20260505001217 6 94 0.0 3.2 0.00 0.00 0.00 93 1012.5
20260505000715 6 76 1.6 3.2 0.00 0.00 0.00 93 1012.6
20260505000003 6 96 0.0 3.2 0.00 0.00 0.00 92 1012.5
20260504235716 6 105 0.0 3.2 0.00 0.00 0.00 92 1012.6
20260504235003 6 95 0.0 3.2 0.00 0.00 0.00 92 1012.8
20260504234503 7 87 0.0 3.2 0.00 0.00 0.00 92 1012.7
20260504234003 7 84 0.0 3.2 0.00 0.00 0.00 92 1012.8
20260504233503 7 89 0.0 3.2 0.00 0.00 0.00 92 1012.7
20260504233216 7 89 0.0 3.2 0.00 0.00 0.00 91 1012.6
20260504232714 7 89 1.6 3.2 0.00 0.00 0.00 91 1012.7
20260504232003 7 83 1.6 3.2 0.00 0.00 0.00 91 1012.7
20260504231503 7 89 0.0 3.2 0.00 0.00 0.00 91 1012.5
20260504231213 7 91 0.0 3.2 0.00 0.00 0.00 91 1012.5
20260504230503 7 85 1.6 3.2 0.00 0.00 0.00 91 1012.5
20260504230008 7 96 0.0 3.2 0.00 0.00 0.00 91 1012.5
20260504225503 8 103 0.0 3.2 0.00 0.00 0.00 90 1012.5
20260504225003 8 104 1.6 3.2 0.00 0.00 0.00 90 1012.6
20260504224503 8 104 1.6 3.2 0.00 0.00 0.00 90 1012.5
20260504224004 8 105 1.6 3.2 0.00 0.00 0.00 90 1012.7
20260504223714 8 109 1.6 3.2 0.00 0.00 0.00 90 1012.5
20260504223003 8 108 1.6 3.2 0.00 0.00 0.00 89 1012.6
20260504222504 8 108 1.6 3.2 0.00 0.00 0.00 89 1012.6
20260504222003 8 107 1.6 3.2 0.00 0.03 0.00 88 1012.7
20260504221503 8 105 1.6 3.2 0.00 0.03 0.00 88 1012.8
20260504221003 8 87 0.0 3.2 0.00 0.03 0.00 87 1012.8
20260504220503 9 89 0.0 3.2 0.00 0.03 0.00 87 1012.7
20260504220215 9 99 0.0 3.2 0.00 0.03 0.00 87 1012.8
20260504215503 9 83 0.0 3.2 0.00 0.05 0.00 86 1012.7